星链-31180 (STARLINK-31180 )

导读

STARLINK-31180卫星是美国太空探索技术公司SpaceX星链(Starlink)星座的组成部分,于2024年1月7日发射,旨在为全球提供高速低延迟卫星互联网服务。星链系统通过批量部署近地轨道卫星组网,持续拓展全球卫星通信覆盖范围,推动卫星互联网普及与天地一体化网络建设。

基本信息
目录编号:
58732
目录名称:
STARLINK-31180
国际标识:
2024-005E
轨道中心:
EARTH
卫星名称:
星链-31180
卫星全名:
星链-31180 (STARLINK-31180 )
卫星状态:
在轨 (已飞行978 天)
发射日期:
2024-01-07 UTC
国别 :
美国 (US)
星等 :
--
该卫星已列入 空间交会检测服务 Space Conjunction Data Service (SCDS) ,当前飞行风险评估等级: 高风险
轨道信息
数据来源 国际轨道数据
星历时间: 2026-09-11T09:23:22+0800
16小时前
查看轨道信息
半长轴: 6861.234km
偏心率: 0.0001655
轨道倾角: 43.005°
近地点辐角 271.550°
升交点赤经 252.875°
平近点角 88.516°
近地点: 481.961km
远地点: 484.233km
周期: 94.268分钟
每日圈数: 15.275643
详细信息
固有亮度:
5
最大亮度:
0.3
卫星平台:
Starlink v2.0 mini
覆盖范围:
全球
运营商:
太空探索技术公司
运营商所在国:
美国
制造商(研发单位):
太空探索技术公司
制造商所在国:
美国
使用方式:
暂无
卫星简介
星链(Starlink)计划是由太空探索技术公司(SpaceX)提出的一个巨型低轨卫星互联网星座项目,计划在2019年至2024年间在太空搭建由约1.2万颗卫星组成的“星链”网络,其中1584颗将部署在地球上空550千米处的近地轨道,并从2020年开始工作。该卫星仍在工作。
2D轨道图
3D轨道图
轨道高度分析图
轨道倾角分析图
轨道综合分析图
查看轨道综合分析图
与全量物体交会距离演化趋势
与全量物体交会风险概率演化趋势